OneWeb SL0503

operational
NORAD ID: 54121 Int'l Des: 2022-138 Owner: ONEWEBN Country: UK Constellation: oneweb
LEOCIRCULARPOLARONEWEB_TYPE

OneWeb SL0503について

説明を読み込み中...

リアルタイム位置

3D地球を読み込み中...

次回通過

高度履歴

Altitude vs Time

uPlot chart will show altitude changes over time

軌道要素

1 54121U 22138J 26095.12932159 .00000115 00000-0 25602-3 0 9998
2 54121 87.9195 319.5210 0001590 92.1215 268.0100 13.19726945167187
Epoch: Apr 5, 2026 • Age: 8 hours

現在のステータス

高度 1202.5 km
速度 7.25 km/s
衛星直下点 -41.62°S, 135°E
打ち上げ日 Oct 22, 2022
運用期間 3.4 years
タイプ internet

技術仕様

分類 Payload
質量 148.00 kg
乾燥質量 140.00 kg
総質量 148.00 kg
長さ 1.30 m
直径 1.00 m
スパン 5.00 m
形状 Trapezoid+2 pan
製造者 ONEWUS
バスタイプ ARROW
フェーズステータス In Orbit
所有者/国 ONEWEBN/UK

大規模コンステレーション

Loading constellations...